| time (UTC) | temp F | wind direction | speed MPH | gust MPH | rain 1hr in | rain 24hr in | rain mn in | humidity % | barometer mb |
| 20260502163034 | 38 | 0 | 1.0 | 4.0 | 0.00 | 0.00 | 0.00 | 85 | 1016.0 |
| 20260502161535 | 37 | 0 | 0.0 | 0.0 | 0.00 | 0.00 | 0.00 | 86 | 1015.5 |
| 20260502151527 | 37 | 0 | 0.0 | 0.0 | 0.00 | 0.00 | 0.00 | 83 | 1014.9 |
| 20260502123036 | 40 | 0 | 0.0 | 5.0 | 0.00 | 0.00 | 0.00 | 71 | 1011.8 |
| 20260502121530 | 40 | 111 | 1.0 | 6.0 | 0.00 | 0.00 | 0.00 | 71 | 1011.6 |
| 20260502114531 | 43 | 0 | 1.0 | 12.0 | 0.00 | 0.00 | 0.00 | 63 | 1010.7 |
| 20260502113032 | 43 | 0 | 0.0 | 5.0 | 0.00 | 0.00 | 0.00 | 62 | 1011.0 |
| 20260502111528 | 43 | 0 | 1.0 | 8.0 | 0.00 | 0.00 | 0.00 | 62 | 1010.7 |
| 20260502110031 | 43 | 162 | 3.0 | 17.0 | 0.00 | 0.00 | 0.00 | 62 | 1010.3 |
| 20260502104536 | 42 | 157 | 1.0 | 17.0 | 0.00 | 0.00 | 0.00 | 62 | 1010.2 |
| 20260502103027 | 42 | 150 | 2.0 | 17.0 | 0.00 | 0.00 | 0.00 | 62 | 1010.1 |
| 20260502101530 | 43 | 167 | 3.0 | 18.0 | 0.00 | 0.00 | 0.00 | 62 | 1009.8 |
| 20260502091528 | 42 | 192 | 2.0 | 20.0 | 0.00 | 0.00 | 0.00 | 61 | 1008.9 |
| 20260502071532 | 40 | 172 | 12.0 | 35.0 | 0.00 | 0.00 | 0.00 | 69 | 1005.7 |
| 20260502070033 | 40 | 157 | 12.0 | 31.0 | 0.00 | 0.00 | 0.00 | 70 | 1005.9 |
| 20260502064530 | 40 | 150 | 11.0 | 35.0 | 0.00 | 0.00 | 0.00 | 70 | 1005.6 |
| 20260502063032 | 40 | 157 | 9.0 | 28.0 | 0.00 | 0.00 | 0.00 | 71 | 1005.3 |
| 20260502061529 | 40 | 120 | 7.0 | 27.0 | 0.00 | 0.00 | 0.00 | 70 | 1005.5 |
| 20260502060028 | 39 | 82 | 6.0 | 24.0 | 0.00 | 0.00 | 0.00 | 71 | 1005.2 |
| 20260502054528 | 38 | 90 | 0.0 | 8.0 | 0.00 | 0.00 | 0.00 | 78 | 1005.1 |
| 20260502053030 | 39 | 28 | 0.0 | 8.0 | 0.00 | 0.00 | 0.00 | 77 | 1004.9 |
| 20260502051531 | 38 | 360 | 3.0 | 15.0 | 0.00 | 0.00 | 0.00 | 79 | 1004.7 |
| 20260502050027 | 37 | 76 | 2.0 | 11.0 | 0.00 | 0.00 | 0.00 | 84 | 1004.4 |
| 20260502044528 | 38 | 5 | 2.0 | 11.0 | 0.00 | 0.00 | 0.00 | 81 | 1004.4 |
| 20260502043028 | 38 | 333 | 3.0 | 17.0 | 0.00 | 0.00 | 0.00 | 78 | 1003.9 |
| 20260502041538 | 38 | 301 | 1.0 | 13.0 | 0.00 | 0.00 | 0.00 | 79 | 1003.7 |
| 20260502040039 | 39 | 240 | 2.0 | 15.0 | 0.00 | 0.00 | 0.00 | 75 | 1003.5 |
| 20260502034528 | 40 | 118 | 1.0 | 16.0 | 0.00 | 0.00 | 0.00 | 70 | 1003.4 |
| 20260502033029 | 41 | 308 | 3.0 | 11.0 | 0.00 | 0.00 | 0.00 | 68 | 1003.0 |
| 20260502031530 | 40 | 279 | 5.0 | 16.0 | 0.00 | 0.00 | 0.00 | 69 | 1002.7 |
| 20260502030035 | 42 | 0 | 3.0 | 15.0 | 0.00 | 0.00 | 0.00 | 65 | 1002.9 |
| 20260502024540 | 38 | 0 | 5.0 | 16.0 | 0.00 | 0.00 | 0.00 | 82 | 1002.5 |
| 20260502023033 | 38 | 57 | 4.0 | 13.0 | 0.00 | 0.00 | 0.00 | 82 | 1002.7 |
| 20260502021531 | 38 | 235 | 2.0 | 11.0 | 0.00 | 0.00 | 0.00 | 80 | 1003.5 |
| 20260502020029 | 37 | 284 | 5.0 | 14.0 | 0.00 | 0.00 | 0.00 | 86 | 1003.4 |
| 20260502014538 | 38 | 349 | 2.0 | 15.0 | 0.00 | 0.00 | 0.00 | 85 | 1004.0 |
| 20260502013030 | 38 | 325 | 5.0 | 16.0 | 0.00 | 0.00 | 0.00 | 83 | 1003.7 |
| 20260502011530 | 39 | 338 | 2.0 | 17.0 | 0.00 | 0.00 | 0.00 | 80 | 1003.8 |
| 20260502010032 | 40 | 5 | 1.0 | 5.0 | 0.00 | 0.00 | 0.00 | 76 | 1004.1 |
| 20260502004528 | 41 | 0 | 3.0 | 12.0 | 0.00 | 0.00 | 0.00 | 73 | 1004.6 |
| 20260502003029 | 41 | 227 | 2.0 | 18.0 | 0.00 | 0.00 | 0.00 | 62 | 1004.2 |
| 20260502001528 | 40 | 311 | 4.0 | 17.0 | 0.00 | 0.00 | 0.00 | 76 | 1003.8 |
| 20260502000028 | 44 | 244 | 3.0 | 21.0 | 0.00 | 0.00 | 0.00 | 58 | 1004.3 |
| 20260501234529 | 41 | 242 | 5.0 | 23.0 | 0.00 | 0.00 | 0.00 | 71 | 1003.9 |
| 20260501233029 | 41 | 329 | 7.0 | 18.0 | 0.00 | 0.00 | 0.00 | 68 | 1003.7 |
| 20260501231533 | 39 | 297 | 8.0 | 19.0 | 0.00 | 0.00 | 0.00 | 78 | 1004.5 |
| 20260501230028 | 40 | 281 | 10.0 | 24.0 | 0.00 | 0.00 | 0.00 | 73 | 1003.7 |
| 20260501224534 | 43 | 293 | 8.0 | 20.0 | 0.00 | 0.00 | 0.00 | 58 | 1003.8 |
| 20260501223034 | 42 | 90 | 6.0 | 19.0 | 0.00 | 0.00 | 0.00 | 64 | 1004.5 |
| 20260501221530 | 42 | 259 | 9.0 | 21.0 | 0.00 | 0.00 | 0.00 | 61 | 1004.0 |
| 20260501220030 | 46 | 295 | 3.0 | 21.0 | 0.00 | 0.00 | 0.00 | 50 | 1003.6 |
| 20260501214529 | 46 | 0 | 5.0 | 19.0 | 0.00 | 0.00 | 0.00 | 49 | 1004.2 |
| 20260501213029 | 41 | 241 | 8.0 | 21.0 | 0.00 | 0.00 | 0.00 | 70 | 1005.6 |
| 20260501211530 | 45 | 156 | 2.0 | 11.0 | 0.00 | 0.00 | 0.00 | 51 | 1005.0 |
| 20260501210029 | 45 | 0 | 0.0 | 11.0 | 0.00 | 0.00 | 0.00 | 52 | 1006.3 |
| 20260501204530 | 45 | 168 | 2.0 | 25.0 | 0.00 | 0.00 | 0.00 | 52 | 1005.8 |
| 20260501203040 | 44 | 163 | 6.0 | 22.0 | 0.00 | 0.00 | 0.00 | 53 | 1006.6 |
| 20260501201528 | 42 | 180 | 3.0 | 16.0 | 0.00 | 0.00 | 0.00 | 59 | 1006.8 |
| 20260501200033 | 41 | 0 | 3.0 | 17.0 | 0.00 | 0.00 | 0.00 | 69 | 1007.2 |
| 20260501194530 | 41 | 17 | 8.0 | 31.0 | 0.00 | 0.00 | 0.00 | 66 | 1006.2 |
| 20260501193031 | 39 | 235 | 7.0 | 19.0 | 0.00 | 0.00 | 0.00 | 69 | 1006.2 |
| 20260501191530 | 39 | 336 | 7.0 | 17.0 | 0.00 | 0.00 | 0.00 | 75 | 1006.4 |
| 20260501190034 | 39 | 287 | 6.0 | 15.0 | 0.00 | 0.00 | 0.00 | 76 | 1006.8 |
| 20260501184551 | 39 | 33 | 2.0 | 14.0 | 0.00 | 0.00 | 0.00 | 74 | 1007.0 |
| 20260501183030 | 41 | 0 | 1.0 | 11.0 | 0.00 | 0.00 | 0.00 | 66 | 1007.6 |
| 20260501181527 | 39 | 350 | 1.0 | 13.0 | 0.00 | 0.00 | 0.00 | 75 | 1007.4 |
| 20260501180031 | 39 | 348 | 0.0 | 11.0 | 0.00 | 0.00 | 0.00 | 76 | 1007.5 |
| 20260501174557 | 38 | 351 | 0.0 | 14.0 | 0.00 | 0.00 | 0.00 | 81 | 1007.5 |
| 20260501173028 | 38 | 316 | 0.0 | 11.0 | 0.00 | 0.00 | 0.00 | 81 | 1007.7 |
| 20260501171532 | 38 | 244 | 1.0 | 8.0 | 0.00 | 0.00 | 0.00 | 78 | 1007.8 |